Temperature
5 5 5 5 5 5 5 4 4 4 4 5 5 5 5 5 5 5 5 5 5 5 5 5 5 5 5 4 4 4 4 4 4 4 4 3 3 3
4 4 4 4 4 4 4 4 4 4 3 4 4 4 4 4 4 4 4 4 4 4 4 4 4 4 4 4 4 4 4 3 3 3 3 3 3 3
4 4 4 4 4 4 4 4 4 3 3 3 3 3 3 4 4 4 4 4 4 4 4 4 4 4 4 4 3 3 3 3 3 3 3 2 2 2
3 3 4 4 3 3 3 3 3 3 3 3 3 3 3 3 3 3 3 3 3 3 3 3 3 3 3 3 3 3 3 3 2 2 2 2 2 2
3 3 3 3 3 3 3 3 3 3 3 2 2 3 3 3 3 3 3 3 3 3 3 2 2 2 2 2 2 2 2 2 2 2 2 2 2 1
2 2 3 3 3 3 2 2 2 2 2 2 2 2 2 2 2 2 2 2 2 2 2 2 2 2 2 2 2 2 2 2 1 1 1 1 1 1
2 2 2 2 2 2 2 2 2 2 1 2 2 2 2 2 1 1 1 1 2 2 2 2 2 2 2 2 2 1 1 1 1 1 1 1 1 0
1 1 1 1 1 1 1 1 1 1 1 1 1 1 1 1 1 1 1 0 0 1 1 1 1 1 1 1 1 1 1 0 0 0 0 0 0 0
1 1 1 1 1 1 1 1 1 1 1 1 1 1 1 1 1 1 0 -0 0 0 0 0 0 0 1 1 1 0 0 0 -0 -0 -0 -0 -0 -0
0 0 0 0 0 0 0 0 1 1 1 1 0 0 0 0 0 0 -0 -0 -0 -0 -1 -1 -0 -0 -0 0 0 -0 -0 -0 -1 -1 -1 -1 -1 -1
-0 -0 -0 -0 -0 -0 -0 -0 0 0 0 0 0 -0 -0 -0 -0 -1 -1 -1 -1 -1 -1 -1 -1 -1 -1 -0 -0 -1 -1 -1 -1 -1 -1 -1 -1 -1
-1 -1 -1 -1 -1 -1 -1 -1 -0 -1 -0 -0 -0 -0 -1 -1 -1 -1 -1 -2 -2 -2 -2 -2 -2 -2 -2 -1 -1 -1 -1 -1 -2 -2 -2 -2 -2 -2
-1 -1 -1 -1 -1 -1 -1 -1 -1 -1 -1 -1 -1 -1 -1 -1 -1 -2 -2 -2 -2 -2 -2 -3 -3 -3 -3 -3 -2 -2 -2 -2 -2 -2 -2 -2 -2 -2
-2 -2 -2 -2 -1 -1 -1 -1 -1 -1 -1 -1 -2 -2 -2 -2 -2 -2 -2 -2 -3 -3 -2 -3 -3 -3 -3 -3 -3 -2 -2 -3 -3 -3 -3 -3 -2 -2
-2 -2 -2 -2 -2 -2 -2 -2 -2 -2 -2 -2 -2 -2 -3 -3 -3 -3 -3 -3 -3 -3 -3 -3 -3 -3 -3 -3 -3 -3 -3 -3 -3 -3 -3 -3 -3 -3
-2 -2 -2 -2 -2 -2 -2 -2 -2 -3 -3 -3 -3 -3 -3 -3 -3 -3 -3 -3 -3 -3 -3 -3 -4 -4 -3 -3 -3 -3 -3 -4 -4 -4 -3 -3 -3 -3
-3 -3 -3 -3 -3 -3 -3 -3 -3 -3 -3 -3 -3 -4 -4 -4 -4 -4 -4 -4 -4 -4 -4 -4 -4 -4 -4 -4 -4 -4 -4 -4 -4 -4 -4 -4 -3 -3
-3 -4 -4 -4 -4 -4 -4 -4 -3 -4 -4 -4 -4 -4 -4 -4 -4 -4 -4 -5 -5 -4 -5 -5 -5 -5 -4 -4 -4 -4 -4 -4 -4 -4 -4 -4 -4 -4
-4 -4 -4 -4 -4 -4 -4 -4 -4 -4 -4 -4 -4 -4 -4 -5 -5 -5 -5 -5 -5 -5 -5 -5 -5 -5 -5 -5 -5 -4 -5 -5 -5 -5 -5 -5 -4 -4
-4 -5 -5 -5 -5 -5 -5 -5 -5 -5 -5 -5 -5 -5 -5 -5 -5 -5 -5 -5 -5 -5 -5 -5 -5 -5 -5 -5 -5 -5 -5 -5 -5 -5 -5 -5 -5 -5
-5 -5 -5 -5 -5 -5 -5 -5 -5 -5 -5 -5 -5 -5 -5 -5 -5 -6 -6 -6 -6 -6 -6 -6 -6 -6 -6 -6 -6 -5 -5 -5 -6 -5 -5 -5 -5 -5
-5 -5 -5 -5 -5 -5 -5 -5 -6 -6 -6 -6 -6 -6 -6 -6 -6 -6 -6 -6 -6 -6 -6 -6 -6 -6 -6 -6 -6 -6 -6 -6 -6 -6 -6 -6 -6 -6
-6 -6 -6 -6 -6 -6 -6 -6 -6 -6 -6 -6 -6 -6 -6 -6 -6 -6 -6 -6 -6 -6 -6 -6 -6 -6 -6 -6 -6 -6 -6 -6 -6 -6 -6 -6 -6 -6
Wind_Speed
4 3 3 3 3 3 3 3 4 4 5 4 2 2 2 3 5 4 5 6 7 7 8 9 9 9 9 10 10 10 10 10 10 10 10 10 10 10
3 4 4 3 3 3 3 4 4 5 6 3 3 2 3 3 5 4 5 6 7 8 9 9 10 10 10 10 10 10 10 10 9 10 10 10 10 10
4 4 5 3 3 3 3 3 3 4 6 4 3 2 3 3 3 4 5 5 6 8 9 10 10 10 9 10 10 10 9 9 9 10 10 10 11 10
5 5 5 4 4 4 3 4 4 4 5 6 3 2 3 3 3 3 3 4 5 7 9 9 9 10 10 10 10 9 9 9 9 10 10 11 11 11
5 5 5 5 5 4 5 5 4 4 4 5 5 3 3 2 2 3 3 3 5 6 7 8 9 9 10 10 10 9 9 9 9 9 9 10 10 11
6 6 6 6 6 6 5 6 5 5 4 4 4 3 3 2 2 3 3 3 4 4 5 6 8 9 9 10 10 9 9 9 9 9 9 9 10 11
6 6 6 7 7 6 5 5 5 5 4 5 5 4 3 3 3 3 4 4 4 3 3 3 4 4 5 7 8 9 9 9 9 9 9 9 10 10
6 5 5 7 7 8 9 8 7 6 6 5 5 6 6 5 3 3 3 3 4 2 2 4 2 4 4 5 7 8 8 9 9 9 9 9 9 10
5 5 5 6 6 6 7 9 8 10 9 7 7 7 6 5 5 5 5 5 5 3 2 4 2 4 4 6 9 9 9 9 9 9 9 9 9 10
6 6 6 6 6 6 5 6 6 6 7 7 7 7 6 5 6 5 5 3 2 2 2 3 3 3 4 5 8 8 9 9 9 9 9 9 9 9
5 5 6 6 8 7 5 5 5 5 6 7 7 6 7 6 4 2 2 2 3 3 2 2 2 3 3 4 6 7 8 9 9 9 8 9 9 8
4 5 7 8 8 7 5 5 6 5 3 3 4 4 3 4 5 4 4 4 3 3 2 2 2 1 3 3 3 4 5 7 8 8 8 8 8 5
4 4 5 8 8 8 6 5 6 4 2 2 2 2 2 2 2 3 3 4 4 3 3 2 2 2 2 3 3 3 3 4 4 5 7 7 7 5
5 4 5 8 8 7 5 5 5 3 2 2 2 2 2 2 2 2 2 2 3 4 5 4 3 3 2 3 4 3 3 4 3 3 4 6 6 7
4 6 7 7 6 4 4 4 3 2 2 2 3 3 3 2 1 1 0 1 1 1 3 4 3 3 3 4 3 3 3 3 3 3 3 3 3 3
3 4 5 4 3 3 2 2 1 2 3 3 3 2 1 1 2 1 1 0 1 1 1 2 3 3 3 4 4 4 3 3 3 3 3 4 3 3
1 1 1 1 1 1 1 2 1 2 2 1 1 1 1 1 1 1 1 1 1 2 1 1 1 1 3 3 3 4 4 3 3 3 3 4 3 3
1 1 2 2 2 2 2 2 2 2 2 2 2 2 2 2 2 1 1 2 2 2 2 1 1 2 2 2 4 4 3 3 3 2 2 3 4 3
1 2 3 3 3 3 3 3 3 2 2 2 2 2 2 2 2 2 2 2 2 2 2 2 1 1 2 3 3 3 3 3 2 2 2 2 3 4
1 2 3 3 3 3 3 3 2 2 2 2 2 2 2 2 2 2 3 3 2 2 2 2 2 2 3 3 2 3 4 2 2 2 3 3 2 4
2 2 3 2 2 3 3 2 2 3 2 2 2 2 3 3 3 3 3 3 2 2 2 3 3 3 1 0 1 2 3 3 3 2 2 2 2 2
2 3 2 2 2 2 2 2 2 2 2 2 2 2 2 3 3 3 3 2 2 2 2 2 1 1 0 0 1 2 3 4 4 4 3 2 1 1
3 3 2 2 2 2 2 2 3 3 2 2 2 2 2 2 2 2 2 1 1 1 0 1 1 1 1 0 0 1 2 3 3 3 3 5 4 3
Wind_Direction
238 242 248 242 234 237 230 228 233 261 268 255 251 256 263 268 267 262 256 263 265 267 267 267 264 263 264 266 269 272 272 273 272 272 273 277 280 283
228 230 244 248 241 240 238 239 235 243 261 256 248 262 262 272 272 266 261 271 270 268 269 266 262 261 263 264 266 269 269 269 270 272 272 274 277 280
239 235 243 248 251 249 243 238 239 243 258 273 257 248 234 244 271 267 261 261 264 269 271 269 265 261 261 263 264 265 266 267 267 268 270 272 274 276
237 237 246 244 247 246 241 241 242 241 247 268 272 255 248 237 243 253 272 268 264 269 272 272 270 265 263 264 262 263 264 265 266 265 267 268 271 274
235 235 242 236 242 242 242 244 247 251 245 251 265 260 261 248 251 269 267 266 268 268 274 274 269 267 266 267 263 260 259 261 264 264 265 268 271 272
236 238 241 235 237 236 239 239 242 248 249 248 254 257 256 255 236 252 274 267 274 270 274 277 273 270 270 273 266 256 254 257 262 264 265 268 270 272
242 243 246 250 251 245 248 241 237 243 247 249 252 255 248 241 243 241 257 278 281 254 268 276 271 268 275 272 267 258 257 260 262 263 264 266 268 270
245 249 252 252 257 260 263 259 249 243 244 245 252 250 246 241 243 240 249 269 276 242 269 283 261 266 271 269 265 265 264 260 259 259 261 265 266 268
245 247 255 256 258 254 258 261 256 254 247 242 244 245 244 236 231 238 238 248 263 256 255 273 271 271 275 267 268 269 270 268 264 262 263 265 267 269
241 240 247 251 251 253 253 258 256 255 254 247 241 241 241 231 222 230 235 253 281 262 207 256 269 274 286 275 267 267 267 270 269 267 268 269 270 270
245 243 247 248 258 261 253 257 268 275 277 270 266 262 258 248 232 209 213 232 270 270 226 232 261 295 289 275 269 273 273 274 272 269 271 275 274 272
255 250 257 260 261 258 246 245 255 264 275 292 282 271 252 234 228 220 216 224 250 251 219 216 237 300 293 275 274 275 278 280 278 275 277 278 277 278
259 256 257 268 267 267 264 250 256 263 251 253 262 266 258 234 234 229 220 218 230 246 215 204 232 251 252 284 292 280 282 290 287 280 280 282 284 281
254 255 261 271 274 273 271 269 269 269 243 237 245 250 256 259 257 245 244 242 243 236 215 206 222 227 237 269 281 293 297 289 284 288 293 289 290 282
257 267 274 275 278 275 280 280 275 250 237 237 245 254 254 250 246 256 344 46 330 270 221 218 213 223 229 244 263 275 293 295 277 287 296 293 291 287
276 269 275 276 285 289 279 284 280 250 240 237 245 254 256 237 237 233 234 239 316 325 313 247 225 214 235 249 253 266 271 271 290 295 301 304 298 276
258 264 257 259 272 271 282 276 269 266 264 242 226 235 238 233 247 247 232 230 233 249 284 331 342 278 241 234 251 257 265 275 273 286 302 305 298 285
265 229 241 242 248 252 256 263 265 258 247 232 223 220 225 230 243 255 241 231 240 244 247 252 331 354 341 297 239 245 263 275 284 287 291 293 299 298
252 244 245 246 248 251 251 253 260 255 247 238 234 223 221 222 223 233 237 246 248 252 253 239 238 244 287 296 291 240 254 286 296 303 291 284 284 292
261 255 254 253 251 250 248 249 250 243 236 239 232 223 216 217 219 224 226 231 245 254 267 264 250 244 244 254 272 291 282 273 284 294 308 313 300 297
276 267 260 256 257 252 245 241 238 240 236 229 228 226 219 215 221 224 229 229 237 242 252 269 275 290 282 100 313 312 317 316 300 285 299 312 313 317
277 274 270 259 252 249 248 243 243 242 231 227 226 228 222 217 217 216 222 230 241 248 266 291 316 342 358 232 261 298 326 343 347 346 326 283 243 229
273 268 261 258 253 247 241 232 231 236 232 227 227 225 218 226 224 207 206 213 217 227 260 314 342 9 0 340 227 310 322 338 351 360 351 348 345 320
Height
1486 1486 1487 1488 1489 1489 1489 1489 1489 1487 1485 1485 1485 1485 1486 1486 1486 1485 1485 1485 1485 1485 1484 1484 1484 1484 1484 1483 1483 1483 1483 1483 1482 1483 1482 1482 1482 1482
1481 1481 1482 1483 1483 1484 1484 1485 1484 1483 1481 1480 1480 1481 1481 1481 1481 1480 1480 1480 1480 1479 1479 1479 1478 1478 1478 1477 1477 1477 1477 1476 1476 1477 1476 1476 1476 1476
1475 1476 1477 1477 1478 1479 1479 1479 1479 1479 1477 1475 1476 1476 1476 1475 1475 1475 1475 1474 1474 1474 1473 1473 1472 1472 1471 1471 1471 1470 1470 1470 1470 1470 1470 1470 1470 1470
1470 1470 1471 1472 1472 1473 1473 1473 1473 1473 1472 1470 1470 1470 1470 1470 1469 1469 1469 1469 1468 1468 1467 1467 1466 1465 1465 1464 1464 1464 1463 1464 1464 1464 1464 1464 1464 1463
1465 1465 1466 1466 1467 1467 1467 1468 1468 1467 1467 1466 1464 1465 1465 1464 1464 1463 1463 1462 1462 1461 1461 1460 1460 1459 1458 1457 1457 1457 1457 1457 1457 1457 1457 1457 1457 1457
1460 1460 1460 1461 1461 1461 1462 1462 1462 1462 1461 1460 1459 1459 1459 1459 1458 1457 1456 1456 1456 1456 1455 1454 1454 1453 1452 1451 1451 1451 1451 1451 1451 1451 1451 1451 1450 1451
1454 1454 1455 1455 1455 1456 1456 1456 1456 1456 1456 1455 1454 1453 1453 1453 1453 1452 1451 1450 1450 1450 1449 1448 1448 1447 1446 1446 1445 1445 1445 1445 1445 1445 1444 1444 1444 1444
1448 1448 1449 1449 1450 1450 1450 1451 1451 1450 1449 1449 1448 1447 1447 1448 1448 1447 1447 1445 1444 1445 1443 1442 1442 1441 1440 1440 1439 1439 1439 1439 1439 1438 1438 1438 1437 1437
1443 1443 1443 1443 1444 1444 1444 1444 1444 1444 1444 1444 1442 1441 1442 1442 1442 1442 1441 1440 1439 1439 1438 1435 1436 1435 1435 1434 1434 1434 1433 1433 1432 1432 1431 1431 1431 1430
1437 1437 1437 1437 1438 1438 1438 1438 1437 1437 1437 1437 1437 1436 1437 1437 1437 1437 1436 1435 1434 1434 1433 1431 1430 1430 1429 1429 1428 1428 1428 1427 1426 1425 1425 1424 1424 1423
1431 1431 1431 1431 1432 1432 1433 1432 1431 1431 1431 1431 1431 1431 1431 1431 1431 1431 1430 1429 1428 1427 1428 1427 1425 1424 1423 1423 1423 1422 1421 1421 1420 1419 1418 1418 1417 1417
1425 1425 1426 1426 1427 1427 1427 1426 1425 1425 1425 1424 1425 1425 1425 1424 1425 1425 1424 1424 1423 1422 1422 1422 1421 1420 1418 1417 1417 1417 1416 1415 1414 1413 1412 1411 1410 1410
1419 1420 1420 1421 1422 1422 1422 1421 1420 1420 1419 1419 1419 1419 1419 1419 1419 1419 1419 1419 1419 1418 1418 1418 1416 1416 1416 1413 1411 1411 1410 1409 1408 1407 1406 1405 1404 1404
1415 1415 1416 1417 1417 1417 1416 1416 1416 1415 1414 1414 1413 1413 1413 1413 1414 1414 1414 1414 1414 1414 1413 1413 1412 1412 1410 1408 1406 1405 1405 1405 1403 1402 1400 1400 1399 1399
1410 1410 1411 1412 1411 1411 1411 1411 1410 1410 1409 1409 1408 1408 1408 1409 1409 1409 1409 1409 1409 1409 1408 1408 1408 1407 1407 1405 1402 1401 1400 1399 1399 1397 1396 1395 1394 1393
1405 1405 1406 1406 1406 1406 1406 1406 1405 1405 1405 1404 1404 1404 1404 1404 1404 1404 1404 1404 1403 1403 1404 1404 1404 1403 1402 1401 1400 1397 1397 1396 1394 1393 1392 1390 1389 1388
1400 1400 1400 1401 1401 1401 1401 1401 1401 1400 1400 1400 1399 1399 1399 1400 1400 1400 1400 1399 1399 1398 1398 1399 1399 1399 1398 1398 1396 1394 1393 1392 1391 1390 1388 1386 1385 1384
1396 1395 1396 1396 1396 1396 1396 1396 1396 1396 1395 1395 1395 1395 1395 1395 1396 1396 1396 1396 1395 1395 1395 1394 1394 1394 1394 1393 1393 1391 1390 1388 1387 1386 1384 1382 1381 1381
1392 1391 1391 1391 1392 1392 1392 1392 1392 1391 1391 1392 1392 1392 1392 1392 1392 1392 1392 1392 1392 1392 1392 1391 1391 1390 1389 1388 1387 1388 1387 1385 1384 1382 1381 1380 1378 1378
1388 1388 1388 1388 1388 1388 1388 1388 1388 1387 1388 1388 1388 1388 1388 1388 1388 1388 1388 1389 1388 1388 1388 1388 1388 1388 1387 1386 1384 1383 1384 1382 1381 1379 1378 1377 1376 1376
1385 1385 1385 1385 1384 1384 1384 1384 1384 1384 1384 1384 1384 1384 1385 1385 1385 1385 1385 1386 1386 1385 1385 1385 1385 1386 1385 1384 1382 1380 1380 1380 1379 1377 1375 1374 1373 1372
1382 1382 1382 1382 1382 1381 1381 1381 1381 1381 1381 1381 1381 1381 1381 1381 1382 1382 1382 1382 1382 1382 1382 1382 1382 1382 1381 1380 1379 1378 1377 1377 1376 1375 1374 1373 1372 1370
1379 1379 1379 1379 1378 1378 1378 1378 1378 1378 1378 1378 1378 1378 1378 1378 1379 1379 1380 1380 1380 1379 1379 1379 1379 1379 1379 1378 1377 1376 1375 1374 1373 1373 1373 1372 1372 1371